Location: Alta
(39.2070°N, 120.8111°W)
Time: 18:42:24
(UTC+00:00)

POLYITAN 1 - Pass Details

Date: 08 April 2023
Orbit: 575 x 592 km, 98.0° (Epoch: 01 June)

Event Time Altitude Azimuth Distance (km) Brightness Sun altitude
Rises 10:50:49 0° 4° (N) 2,803 ? -29.8°
Reaches altitude 10° 10:53:04 10° 356° (N) 1,897 ? -29.5°
Enters shadow 10:54:13 17° 348° (NNW) 1,475 ? -29.3°
